Location: Newark
(26.2500°N, 17.3000°E)
Time: 09:10:06
(UTC+00:00)

Envisat - Visible Passes

Search period start: 18 September 2019 00:00
Search period end: 28 September 2019 00:00
Orbit: 764 x 766 km, 98.1° (Epoch: 18 September)

Date Brightness Start Highest point End Pass type
(mag) Time Alt. Az. Time Alt. Az. Time Alt. Az.
18 Sep 3.1 17:13:40 10° SSE 17:18:44 87° WSW 17:23:50 10° NNW visible
19 Sep 5.9 18:17:51 10° SW 18:21:07 17° W 18:24:25 10° NW visible
20 Sep 4.3 17:39:25 10° S 17:44:15 44° W 17:49:05 10° NNW visible
22 Sep 5.5 18:05:52 10° SSW 18:09:48 23° W 18:13:46 10° NW visible
23 Sep 3.7 17:27:59 10° S 17:32:58 59° W 17:37:59 10° NNW visible
24 Sep 6.2 18:33:56 10° WSW 18:35:28 11° W 18:37:00 10° WNW visible
25 Sep 5.0 17:54:07 10° SSW 17:58:31 30° W 18:02:57 10° NW visible
26 Sep 3.2 17:16:40 10° S 17:21:43 79° WSW 17:26:48 10° NNW visible
27 Sep 5.9 18:21:12 10° SW 18:24:08 15° W 18:27:05 10° WNW visible
